Погода в Куэнке

Эквадор     2°53′52″S   79°01′33″W
темп.,
°C
ветер,
м/с
пор.,
м/с
влажн.,
%
обл.,
%
осадки,
мм/ч
давл.,
гПа
погр.,
м
8 марта, пн
пн801:00+9з119796 6.9 101526
04:00+8ю019882 0.3 101434
07:00+10в119690 0.5 101571
10:00+15всв227357 0.3 1016811
13:00+16вюв336962 1.6 1013930
16:00+16юв337562 3.8 1010786
19:00+11ююв129162 6.8 101325
22:00+9ююв119599 1.0 101624
9 марта, вт
вт901:00+9ююв119799 1.1 101527
04:00+9ю1199100 0.1 101348
07:00+10ююз2397100 0.1 1015170
10:00+13ююз3385100 0.6 1017461
13:00+12ююз4586100 2.6 1014473
16:00+12ююз3589100 1.8 1011348
19:00+10ююз3596100 2.4 1013279
22:00+10ююз2398100 3.9 1016151
10 марта, ср
ср1001:00+9юз1298100 8.1 1015106
04:00+9юз2295100 0.8 101385
07:00+8ююз2397100 0.8 1015146
10:00+13ююз3382100 0.2 1016518
13:00+15юз4469100 1.3 1013939
16:00+13ююз3583100 1.1 1010517
19:00+11юз3593100 1.8 1013203
22:00+9юз339495 0.1 101565
11 марта, чт
чт1101:00+8юз239296 0.1 101445
04:00+7юз239394 0.0 101337
07:00+9с119397 0.8 101560
10:00+10ююв1189100 1.0 1016167
13:00+16ююв326696 1.4 1013958
16:00+13юз128993 5.5 1011214
19:00+10всв019597 13.6 101224
22:00+10з1198100 6.0 101561
12 марта, пт
пт1201:00+9всв1197100 7.6 101423
04:00+7зюз1196100 0.0 101323
07:00+9всв0092100 0.0 101544
10:00+14всв227489 0.1 1015655
13:00+16вюв327074 2.3 1013876
16:00+14юз3484100 7.8 1010555
19:00+10зсз1189100 12.6 101224
22:00+9юз2295100 0.1 101533